| time (UTC) | temp C | wind direction | speed KPH | gust KPH | rain 1hr cm | rain 24hr cm | rain mn cm | humidity % | barometer mb |
| 20260502233712 | 8 | 0.0 | 0.0 | 0.00 | 0.00 | 0.00 | 51 | 1015.7 | |
| 20260502233212 | 8 | 238 | 0.0 | 1.6 | 0.00 | 0.00 | 0.00 | 50 | 1015.7 |
| 20260502232712 | 8 | 251 | 1.6 | 6.4 | 0.00 | 0.00 | 0.00 | 50 | 1015.7 |
| 20260502232212 | 8 | 0.0 | 0.0 | 0.00 | 0.00 | 0.00 | 52 | 1015.7 | |
| 20260502231732 | 8 | 251 | 0.0 | 3.2 | 0.00 | 0.00 | 0.00 | 52 | 1015.8 |
| 20260502231212 | 8 | 257 | 0.0 | 3.2 | 0.00 | 0.00 | 0.00 | 50 | 1015.8 |
| 20260502230712 | 8 | 40 | 0.0 | 1.6 | 0.00 | 0.00 | 0.00 | 49 | 1015.9 |
| 20260502230212 | 8 | 353 | 1.6 | 8.0 | 0.00 | 0.00 | 0.00 | 49 | 1015.9 |
| 20260502225712 | 8 | 339 | 1.6 | 4.8 | 0.00 | 0.00 | 0.00 | 49 | 1015.9 |
| 20260502225212 | 8 | 281 | 1.6 | 8.0 | 0.00 | 0.00 | 0.00 | 49 | 1015.8 |
| 20260502224712 | 8 | 290 | 1.6 | 3.2 | 0.00 | 0.00 | 0.00 | 48 | 1015.8 |
| 20260502224212 | 8 | 24 | 4.8 | 8.0 | 0.00 | 0.00 | 0.00 | 46 | 1015.7 |
| 20260502223712 | 8 | 319 | 0.0 | 4.8 | 0.00 | 0.00 | 0.00 | 47 | 1015.8 |
| 20260502223252 | 8 | 320 | 0.0 | 12.9 | 0.00 | 0.00 | 0.00 | 46 | 1015.8 |
| 20260502222712 | 8 | 290 | 6.4 | 11.3 | 0.00 | 0.00 | 0.00 | 48 | 1015.8 |
| 20260502222212 | 9 | 249 | 3.2 | 9.7 | 0.00 | 0.00 | 0.00 | 48 | 1015.9 |
| 20260502221712 | 9 | 279 | 1.6 | 4.8 | 0.00 | 0.00 | 0.00 | 48 | 1015.9 |
| 20260502221212 | 9 | 325 | 3.2 | 8.0 | 0.00 | 0.00 | 0.00 | 50 | 1015.9 |
| 20260502220712 | 8 | 0.0 | 4.8 | 0.00 | 0.00 | 0.00 | 48 | 1016.0 | |
| 20260502220232 | 9 | 205 | 1.6 | 4.8 | 0.00 | 0.00 | 0.00 | 49 | 1016.0 |
| 20260502215712 | 9 | 302 | 1.6 | 3.2 | 0.00 | 0.00 | 0.00 | 50 | 1016.0 |
| 20260502215212 | 9 | 292 | 3.2 | 9.7 | 0.00 | 0.00 | 0.00 | 50 | 1016.0 |
| 20260502214712 | 9 | 319 | 1.6 | 4.8 | 0.00 | 0.00 | 0.00 | 50 | 1016.0 |
| 20260502214212 | 8 | 253 | 1.6 | 9.7 | 0.00 | 0.00 | 0.00 | 49 | 1015.9 |
| 20260502213732 | 8 | 18 | 1.6 | 3.2 | 0.00 | 0.00 | 0.00 | 49 | 1016.0 |
| 20260502213212 | 8 | 268 | 4.8 | 11.3 | 0.00 | 0.00 | 0.00 | 48 | 1016.0 |
| 20260502212732 | 9 | 239 | 3.2 | 14.5 | 0.00 | 0.00 | 0.00 | 46 | 1015.9 |
| 20260502212212 | 9 | 319 | 3.2 | 11.3 | 0.00 | 0.00 | 0.00 | 49 | 1015.9 |
| 20260502211712 | 9 | 321 | 4.8 | 12.9 | 0.00 | 0.00 | 0.00 | 47 | 1016.0 |
| 20260502211232 | 9 | 270 | 3.2 | 9.7 | 0.00 | 0.00 | 0.00 | 48 | 1015.9 |
| 20260502210712 | 9 | 328 | 4.8 | 9.7 | 0.00 | 0.00 | 0.00 | 48 | 1016.0 |
| 20260502210212 | 9 | 227 | 11.3 | 14.5 | 0.00 | 0.00 | 0.00 | 48 | 1016.0 |
| 20260502205712 | 9 | 289 | 3.2 | 9.7 | 0.00 | 0.00 | 0.00 | 48 | 1016.1 |
| 20260502205212 | 9 | 304 | 4.8 | 11.3 | 0.00 | 0.00 | 0.00 | 46 | 1016.1 |
| 20260502204712 | 9 | 234 | 3.2 | 6.4 | 0.00 | 0.00 | 0.00 | 48 | 1016.0 |
| 20260502204212 | 8 | 278 | 3.2 | 8.0 | 0.00 | 0.00 | 0.00 | 50 | 1016.0 |
| 20260502203712 | 8 | 274 | 4.8 | 11.3 | 0.00 | 0.00 | 0.00 | 48 | 1016.1 |
| 20260502203212 | 8 | 315 | 4.8 | 12.9 | 0.00 | 0.00 | 0.00 | 46 | 1016.1 |
| 20260502202712 | 8 | 313 | 4.8 | 12.9 | 0.00 | 0.00 | 0.00 | 47 | 1016.1 |
| 20260502202211 | 8 | 240 | 8.0 | 12.9 | 0.00 | 0.00 | 0.00 | 49 | 1016.1 |
| 20260502201712 | 8 | 280 | 1.6 | 4.8 | 0.00 | 0.00 | 0.00 | 50 | 1016.2 |
| 20260502201212 | 8 | 335 | 1.6 | 8.0 | 0.00 | 0.00 | 0.00 | 51 | 1016.3 |
| 20260502200712 | 8 | 321 | 4.8 | 9.7 | 0.00 | 0.00 | 0.00 | 48 | 1016.3 |
| 20260502200252 | 8 | 265 | 1.6 | 4.8 | 0.00 | 0.00 | 0.00 | 49 | 1016.3 |
| 20260502195712 | 8 | 243 | 4.8 | 9.7 | 0.00 | 0.00 | 0.00 | 49 | 1016.4 |
| 20260502195212 | 8 | 262 | 8.0 | 12.9 | 0.00 | 0.00 | 0.00 | 49 | 1016.4 |
| 20260502194712 | 8 | 321 | 11.3 | 19.3 | 0.00 | 0.00 | 0.00 | 49 | 1016.4 |
| 20260502194211 | 8 | 322 | 4.8 | 14.5 | 0.00 | 0.00 | 0.00 | 49 | 1016.4 |
| 20260502193732 | 8 | 297 | 3.2 | 12.9 | 0.00 | 0.00 | 0.00 | 46 | 1016.5 |
| 20260502193232 | 8 | 343 | 8.0 | 16.1 | 0.00 | 0.00 | 0.00 | 47 | 1016.5 |
| 20260502192712 | 8 | 315 | 6.4 | 11.3 | 0.00 | 0.00 | 0.00 | 48 | 1016.5 |
| 20260502192211 | 8 | 335 | 3.2 | 11.3 | 0.00 | 0.00 | 0.00 | 48 | 1016.6 |
| 20260502191732 | 8 | 327 | 4.8 | 12.9 | 0.00 | 0.00 | 0.00 | 49 | 1016.6 |
| 20260502191211 | 8 | 317 | 1.6 | 3.2 | 0.00 | 0.00 | 0.00 | 47 | 1016.7 |
| 20260502190712 | 8 | 334 | 8.0 | 14.5 | 0.00 | 0.00 | 0.00 | 46 | 1016.8 |
| 20260502190212 | 8 | 328 | 8.0 | 12.9 | 0.00 | 0.00 | 0.00 | 47 | 1016.9 |
| 20260502185712 | 8 | 326 | 4.8 | 8.0 | 0.00 | 0.00 | 0.00 | 47 | 1016.9 |
| 20260502185232 | 9 | 317 | 3.2 | 6.4 | 0.00 | 0.00 | 0.00 | 50 | 1016.9 |
| 20260502184712 | 8 | 257 | 6.4 | 9.7 | 0.00 | 0.00 | 0.00 | 51 | 1016.9 |
| 20260502184232 | 8 | 348 | 3.2 | 8.0 | 0.00 | 0.00 | 0.00 | 47 | 1016.9 |
| 20260502183711 | 8 | 338 | 6.4 | 11.3 | 0.00 | 0.00 | 0.00 | 48 | 1017.0 |
| 20260502183232 | 8 | 330 | 3.2 | 6.4 | 0.00 | 0.00 | 0.00 | 50 | 1017.1 |
| 20260502182712 | 8 | 334 | 8.0 | 14.5 | 0.00 | 0.00 | 0.00 | 48 | 1017.1 |
| 20260502182211 | 8 | 331 | 6.4 | 16.1 | 0.00 | 0.00 | 0.00 | 50 | 1017.1 |
| 20260502181712 | 8 | 296 | 3.2 | 9.7 | 0.00 | 0.00 | 0.00 | 55 | 1017.2 |
| 20260502181211 | 8 | 332 | 4.8 | 9.7 | 0.00 | 0.00 | 0.00 | 52 | 1017.2 |
| 20260502180711 | 8 | 66 | 4.8 | 6.4 | 0.00 | 0.00 | 0.00 | 51 | 1017.2 |
| 20260502180211 | 8 | 303 | 3.2 | 6.4 | 0.00 | 0.00 | 0.00 | 54 | 1017.2 |
| 20260502170211 | 7 | 343 | 3.2 | 9.7 | 0.00 | 0.00 | 0.00 | 54 | 1017.5 |
| 20260502164231 | 7 | 340 | 0.0 | 3.2 | 0.00 | 0.00 | 0.00 | 55 | 1017.6 |
| 20260502163732 | 7 | 266 | 1.6 | 6.4 | 0.00 | 0.00 | 0.00 | 54 | 1017.6 |
| 20260502163231 | 7 | 345 | 3.2 | 16.1 | 0.00 | 0.00 | 0.00 | 53 | 1017.6 |
| 20260502162731 | 8 | 333 | 3.2 | 11.3 | 0.00 | 0.00 | 0.00 | 57 | 1017.7 |
| 20260502162211 | 8 | 39 | 3.2 | 8.0 | 0.00 | 0.00 | 0.00 | 55 | 1017.7 |
| 20260502161711 | 7 | 5 | 4.8 | 8.0 | 0.00 | 0.00 | 0.00 | 58 | 1017.7 |
| 20260502161311 | 7 | 352 | 1.6 | 4.8 | 0.00 | 0.00 | 0.00 | 58 | 1017.7 |
| 20260502160712 | 7 | 34 | 1.6 | 6.4 | 0.00 | 0.00 | 0.00 | 57 | 1017.8 |
| 20260502160211 | 7 | 316 | 3.2 | 12.9 | 0.00 | 0.00 | 0.00 | 59 | 1017.8 |
| 20260502152211 | 7 | 341 | 4.8 | 12.9 | 0.00 | 0.00 | 0.00 | 56 | 1017.7 |
| 20260502151711 | 7 | 324 | 6.4 | 16.1 | 0.00 | 0.00 | 0.00 | 57 | 1017.7 |
| 20260502151211 | 7 | 269 | 4.8 | 12.9 | 0.00 | 0.00 | 0.00 | 59 | 1017.7 |
| 20260502150711 | 7 | 316 | 1.6 | 6.4 | 0.00 | 0.00 | 0.00 | 60 | 1017.7 |
| 20260502150211 | 7 | 45 | 1.6 | 12.9 | 0.00 | 0.00 | 0.00 | 61 | 1017.7 |
| 20260502130211 | 5 | 319 | 6.4 | 14.5 | 0.00 | 0.00 | 0.00 | 70 | 1017.4 |
| 20260502123711 | 4 | 2 | 6.4 | 11.3 | 0.00 | 0.03 | 0.00 | 76 | 1017.5 |
| 20260502123211 | 4 | 343 | 4.8 | 8.0 | 0.00 | 0.03 | 0.00 | 77 | 1017.4 |
| 20260502122711 | 3 | 16 | 3.2 | 8.0 | 0.00 | 0.03 | 0.00 | 80 | 1017.4 |
| 20260502122231 | 3 | 334 | 6.4 | 9.7 | 0.00 | 0.03 | 0.00 | 81 | 1017.4 |
| 20260502121711 | 3 | 317 | 6.4 | 12.9 | 0.00 | 0.03 | 0.00 | 84 | 1017.4 |
| 20260502121211 | 3 | 332 | 1.6 | 6.4 | 0.00 | 0.03 | 0.00 | 86 | 1017.3 |
| 20260502120711 | 2 | 330 | 3.2 | 6.4 | 0.00 | 0.03 | 0.00 | 89 | 1017.4 |
| 20260502120211 | 2 | 343 | 4.8 | 8.0 | 0.00 | 0.03 | 0.00 | 90 | 1017.3 |
| 20260502115731 | 2 | 337 | 0.0 | 6.4 | 0.00 | 0.03 | 0.00 | 91 | 1017.2 |
| 20260502115211 | 2 | 0.0 | 3.2 | 0.00 | 0.03 | 0.00 | 90 | 1017.3 | |
| 20260502114711 | 2 | 267 | 0.0 | 3.2 | 0.00 | 0.03 | 0.00 | 90 | 1017.2 |
| 20260502114231 | 2 | 307 | 0.0 | 1.6 | 0.00 | 0.03 | 0.00 | 90 | 1017.2 |
| 20260502113711 | 2 | 0.0 | 0.0 | 0.00 | 0.03 | 0.00 | 90 | 1017.2 | |
| 20260502113211 | 2 | 0.0 | 0.0 | 0.00 | 0.03 | 0.00 | 90 | 1017.1 | |
| 20260502112711 | 1 | 302 | 0.0 | 1.6 | 0.00 | 0.03 | 0.00 | 90 | 1017.1 |
| 20260502112211 | 1 | 0.0 | 1.6 | 0.00 | 0.03 | 0.00 | 89 | 1017.1 | |
| 20260502111711 | 1 | 0.0 | 0.0 | 0.00 | 0.03 | 0.00 | 89 | 1017.0 | |
| 20260502111231 | 1 | 322 | 0.0 | 3.2 | 0.00 | 0.03 | 0.00 | 88 | 1017.0 |
| 20260502110711 | 1 | 0.0 | 0.0 | 0.00 | 0.03 | 0.00 | 88 | 1016.9 | |
| 20260502110211 | 2 | 0.0 | 0.0 | 0.00 | 0.05 | 0.00 | 87 | 1016.9 | |
| 20260502105711 | 2 | 0.0 | 0.0 | 0.00 | 0.05 | 0.00 | 87 | 1016.8 | |
| 20260502105211 | 2 | 0.0 | 0.0 | 0.00 | 0.05 | 0.00 | 87 | 1016.8 | |
| 20260502104711 | 2 | 0.0 | 0.0 | 0.00 | 0.05 | 0.00 | 87 | 1016.8 | |
| 20260502104211 | 2 | 0.0 | 0.0 | 0.00 | 0.05 | 0.00 | 86 | 1016.8 | |
| 20260502103711 | 2 | 0.0 | 0.0 | 0.00 | 0.08 | 0.00 | 86 | 1016.8 | |
| 20260502103251 | 2 | 0.0 | 0.0 | 0.00 | 0.10 | 0.00 | 86 | 1016.7 | |
| 20260502102711 | 2 | 334 | 0.0 | 1.6 | 0.00 | 0.10 | 0.00 | 86 | 1016.6 |
| 20260502102211 | 3 | 0.0 | 0.0 | 0.00 | 0.13 | 0.00 | 86 | 1016.6 | |
| 20260502101710 | 3 | 0.0 | 0.0 | 0.00 | 0.13 | 0.00 | 85 | 1016.7 | |
| 20260502101211 | 3 | 0.0 | 0.0 | 0.00 | 0.15 | 0.00 | 85 | 1016.7 | |
| 20260502100711 | 3 | 0.0 | 0.0 | 0.00 | 0.18 | 0.00 | 86 | 1016.7 | |
| 20260502100211 | 3 | 0.0 | 0.0 | 0.00 | 0.20 | 0.00 | 86 | 1016.7 | |
| 20260502090711 | 3 | 0.0 | 0.0 | 0.00 | 0.36 | 0.00 | 83 | 1016.4 | |
| 20260502090210 | 3 | 0.0 | 1.6 | 0.00 | 0.38 | 0.00 | 83 | 1016.4 | |
| 20260502071210 | 3 | 300 | 1.6 | 3.2 | 0.00 | 0.41 | 0.00 | 78 | 1015.9 |
| 20260502070710 | 4 | 315 | 1.6 | 6.4 | 0.00 | 0.43 | 0.00 | 78 | 1015.9 |
| 20260502070210 | 4 | 223 | 1.6 | 3.2 | 0.00 | 0.43 | 0.00 | 78 | 1016.0 |
| 20260502065710 | 4 | 292 | 1.6 | 4.8 | 0.00 | 0.43 | 0.00 | 78 | 1016.0 |
| 20260502065210 | 4 | 292 | 1.6 | 3.2 | 0.00 | 0.43 | 0.00 | 78 | 1016.1 |
| 20260502064710 | 4 | 244 | 1.6 | 3.2 | 0.00 | 0.43 | 0.00 | 77 | 1016.1 |
| 20260502064210 | 4 | 301 | 0.0 | 11.3 | 0.00 | 0.46 | 0.00 | 77 | 1016.1 |
| 20260502063712 | 4 | 351 | 1.6 | 1.6 | 0.00 | 0.46 | 0.00 | 77 | 1016.1 |
| 20260502063232 | 4 | 276 | 1.6 | 4.8 | 0.00 | 0.46 | 0.00 | 77 | 1016.1 |
| 20260502062712 | 4 | 278 | 3.2 | 12.9 | 0.00 | 0.48 | 0.00 | 77 | 1016.1 |
| 20260502062212 | 4 | 279 | 4.8 | 9.7 | 0.00 | 0.48 | 0.00 | 77 | 1016.1 |
| 20260502061712 | 4 | 0.0 | 4.8 | 0.00 | 0.48 | 0.00 | 78 | 1016.1 | |
| 20260502061212 | 4 | 274 | 1.6 | 6.4 | 0.00 | 0.48 | 0.00 | 79 | 1016.1 |
| 20260502060712 | 4 | 332 | 0.0 | 1.6 | 0.00 | 0.48 | 0.00 | 80 | 1016.2 |
| 20260502060212 | 4 | 257 | 3.2 | 11.3 | 0.00 | 0.48 | 0.00 | 80 | 1016.3 |
| 20260502055712 | 4 | 245 | 1.6 | 4.8 | 0.00 | 0.48 | 0.00 | 81 | 1016.3 |
| 20260502055212 | 4 | 346 | 0.0 | 3.2 | 0.00 | 0.48 | 0.00 | 82 | 1016.2 |
| 20260502054712 | 4 | 264 | 0.0 | 3.2 | 0.00 | 0.48 | 0.00 | 82 | 1016.3 |
| 20260502054212 | 4 | 273 | 1.6 | 6.4 | 0.00 | 0.48 | 0.00 | 83 | 1016.3 |
| 20260502053712 | 4 | 226 | 1.6 | 4.8 | 0.00 | 0.48 | 0.00 | 84 | 1016.3 |
| 20260502053212 | 4 | 33 | 0.0 | 3.2 | 0.00 | 0.48 | 0.00 | 85 | 1016.2 |
| 20260502052712 | 4 | 246 | 1.6 | 3.2 | 0.00 | 0.48 | 0.00 | 86 | 1016.2 |
| 20260502052212 | 4 | 0.0 | 1.6 | 0.00 | 0.48 | 0.00 | 86 | 1016.2 | |
| 20260502051712 | 4 | 314 | 1.6 | 4.8 | 0.00 | 0.48 | 0.00 | 87 | 1016.3 |
| 20260502051212 | 4 | 282 | 0.0 | 1.6 | 0.00 | 0.48 | 0.00 | 88 | 1016.3 |
| 20260502050712 | 3 | 287 | 0.0 | 1.6 | 0.00 | 0.48 | 0.00 | 88 | 1016.4 |
| 20260502050212 | 3 | 0.0 | 0.0 | 0.00 | 0.48 | 0.00 | 89 | 1016.4 | |
| 20260502045732 | 3 | 0.0 | 0.0 | 0.00 | 0.48 | 0.00 | 89 | 1016.3 | |
| 20260502045212 | 3 | 0.0 | 0.0 | 0.00 | 0.48 | 0.00 | 89 | 1016.3 | |
| 20260502044712 | 3 | 248 | 0.0 | 1.6 | 0.00 | 0.48 | 0.00 | 89 | 1016.3 |
| 20260502044212 | 3 | 245 | 0.0 | 3.2 | 0.00 | 0.48 | 0.00 | 89 | 1016.3 |
| 20260502043712 | 3 | 0.0 | 0.0 | 0.00 | 0.48 | 0.00 | 89 | 1016.3 | |
| 20260502043212 | 3 | 234 | 0.0 | 1.6 | 0.00 | 0.48 | 0.00 | 89 | 1016.3 |
| 20260502042712 | 3 | 234 | 0.0 | 1.6 | 0.00 | 0.48 | 0.00 | 88 | 1016.3 |
| 20260502042212 | 3 | 231 | 0.0 | 1.6 | 0.00 | 0.48 | 0.00 | 88 | 1016.3 |
| 20260502041712 | 3 | 233 | 1.6 | 3.2 | 0.00 | 0.48 | 0.00 | 88 | 1016.3 |
| 20260502041212 | 4 | 232 | 1.6 | 3.2 | 0.00 | 0.48 | 0.00 | 87 | 1016.3 |
| 20260502040712 | 4 | 239 | 1.6 | 3.2 | 0.00 | 0.48 | 0.00 | 87 | 1016.2 |
| 20260502040212 | 4 | 0.0 | 0.0 | 0.00 | 0.48 | 0.00 | 87 | 1016.1 | |
| 20260502035712 | 4 | 0.0 | 0.0 | 0.00 | 0.48 | 0.48 | 87 | 1016.0 | |
| 20260502035212 | 5 | 0.0 | 0.0 | 0.00 | 0.48 | 0.48 | 87 | 1016.0 | |
| 20260502034712 | 5 | 0.0 | 0.0 | 0.00 | 0.48 | 0.48 | 87 | 1015.9 | |
| 20260502034212 | 5 | 0.0 | 0.0 | 0.00 | 0.48 | 0.48 | 87 | 1015.9 | |
| 20260502033712 | 5 | 0.0 | 0.0 | 0.00 | 0.48 | 0.48 | 87 | 1015.9 | |
| 20260502033212 | 5 | 0.0 | 0.0 | 0.00 | 0.48 | 0.48 | 88 | 1015.9 | |
| 20260502032712 | 5 | 321 | 0.0 | 1.6 | 0.00 | 0.48 | 0.48 | 88 | 1015.9 |
| 20260502032212 | 5 | 336 | 0.0 | 3.2 | 0.00 | 0.48 | 0.48 | 88 | 1015.8 |
| 20260502031712 | 5 | 0.0 | 0.0 | 0.00 | 0.48 | 0.48 | 88 | 1015.9 | |
| 20260502031212 | 5 | 0.0 | 0.0 | 0.00 | 0.48 | 0.48 | 88 | 1015.8 | |
| 20260502030732 | 5 | 0.0 | 0.0 | 0.00 | 0.48 | 0.48 | 88 | 1015.8 | |
| 20260502030212 | 5 | 0.0 | 0.0 | 0.00 | 0.48 | 0.48 | 88 | 1015.8 | |
| 20260502025712 | 5 | 0.0 | 0.0 | 0.00 | 0.48 | 0.48 | 88 | 1015.8 | |
| 20260502025212 | 5 | 0.0 | 0.0 | 0.00 | 0.48 | 0.48 | 88 | 1015.8 | |
| 20260502024712 | 5 | 0.0 | 0.0 | 0.00 | 0.48 | 0.48 | 87 | 1015.8 | |
| 20260502024212 | 5 | 0.0 | 0.0 | 0.00 | 0.48 | 0.48 | 87 | 1015.9 | |
| 20260502023712 | 5 | 0.0 | 0.0 | 0.00 | 0.48 | 0.48 | 87 | 1015.9 | |
| 20260502023212 | 5 | 0.0 | 0.0 | 0.00 | 0.48 | 0.48 | 87 | 1015.9 | |
| 20260502022732 | 5 | 0.0 | 0.0 | 0.00 | 0.48 | 0.48 | 86 | 1015.8 | |
| 20260502022212 | 5 | 0.0 | 0.0 | 0.00 | 0.48 | 0.48 | 86 | 1015.8 | |
| 20260502021712 | 5 | 0.0 | 0.0 | 0.00 | 0.48 | 0.48 | 86 | 1015.7 | |
| 20260502021212 | 5 | 0.0 | 0.0 | 0.00 | 0.48 | 0.48 | 85 | 1015.7 | |
| 20260502020712 | 5 | 0.0 | 0.0 | 0.00 | 0.48 | 0.48 | 85 | 1015.6 | |
| 20260502020212 | 5 | 0.0 | 0.0 | 0.00 | 0.48 | 0.48 | 84 | 1015.5 | |
| 20260502015712 | 5 | 0.0 | 0.0 | 0.00 | 0.48 | 0.48 | 84 | 1015.5 | |
| 20260502015212 | 5 | 0.0 | 0.0 | 0.00 | 0.48 | 0.48 | 84 | 1015.4 | |
| 20260502014732 | 6 | 0.0 | 3.2 | 0.00 | 0.48 | 0.48 | 83 | 1015.3 | |
| 20260502014212 | 6 | 0 | 1.6 | 4.8 | 0.00 | 0.48 | 0.48 | 84 | 1015.2 |
| 20260502013732 | 6 | 9 | 1.6 | 4.8 | 0.00 | 0.48 | 0.48 | 84 | 1015.1 |
| 20260502013212 | 6 | 0.0 | 0.0 | 0.00 | 0.48 | 0.48 | 84 | 1015.1 | |
| 20260502012712 | 6 | 0.0 | 0.0 | 0.00 | 0.48 | 0.48 | 84 | 1015.1 | |
| 20260502012212 | 6 | 309 | 0.0 | 3.2 | 0.00 | 0.48 | 0.48 | 84 | 1015.0 |
| 20260502011712 | 6 | 319 | 1.6 | 4.8 | 0.00 | 0.48 | 0.48 | 83 | 1014.9 |
| 20260502011212 | 6 | 321 | 0.0 | 1.6 | 0.00 | 0.48 | 0.48 | 83 | 1014.9 |
| 20260502010712 | 6 | 333 | 0.0 | 3.2 | 0.00 | 0.48 | 0.48 | 83 | 1014.9 |
| 20260502010212 | 6 | 0.0 | 0.0 | 0.00 | 0.48 | 0.48 | 82 | 1014.9 | |
| 20260502005712 | 6 | 319 | 0.0 | 1.6 | 0.00 | 0.48 | 0.48 | 82 | 1014.8 |
| 20260502005232 | 6 | 330 | 1.6 | 1.6 | 0.00 | 0.48 | 0.48 | 81 | 1014.8 |
| 20260502004712 | 6 | 328 | 3.2 | 4.8 | 0.00 | 0.48 | 0.48 | 81 | 1014.7 |
| 20260502004212 | 6 | 0.0 | 0.0 | 0.00 | 0.48 | 0.48 | 81 | 1014.7 | |
| 20260502003712 | 6 | 0.0 | 0.0 | 0.00 | 0.48 | 0.48 | 80 | 1014.7 | |
| 20260502003232 | 6 | 324 | 0.0 | 3.2 | 0.00 | 0.48 | 0.48 | 80 | 1014.6 |
| 20260502002712 | 6 | 329 | 0.0 | 4.8 | 0.00 | 0.48 | 0.48 | 79 | 1014.6 |
| 20260502002212 | 7 | 347 | 1.6 | 3.2 | 0.00 | 0.48 | 0.48 | 79 | 1014.6 |
| 20260502001712 | 7 | 2 | 3.2 | 6.4 | 0.00 | 0.48 | 0.48 | 78 | 1014.6 |
| 20260502001212 | 7 | 330 | 1.6 | 6.4 | 0.00 | 0.48 | 0.48 | 78 | 1014.6 |
| 20260502000712 | 7 | 336 | 0.0 | 3.2 | 0.00 | 0.48 | 0.48 | 77 | 1014.5 |
| 20260502000212 | 7 | 329 | 1.6 | 3.2 | 0.00 | 0.48 | 0.48 | 76 | 1014.5 |
| 20260501235732 | 7 | 328 | 0.0 | 1.6 | 0.00 | 0.48 | 0.48 | 75 | 1014.5 |
| 20260501235212 | 7 | 287 | 1.6 | 4.8 | 0.00 | 0.48 | 0.48 | 74 | 1014.5 |
| 20260501234712 | 7 | 310 | 4.8 | 8.0 | 0.00 | 0.48 | 0.48 | 72 | 1014.4 |
| 20260501234212 | 7 | 342 | 3.2 | 8.0 | 0.00 | 0.48 | 0.48 | 71 | 1014.4 |